| time (UTC) | temp F | wind direction | speed MPH | gust MPH | rain 1hr in | rain 24hr in | rain mn in | humidity % | barometer mb |
| 20260509094538 | 74 | 0 | 0.0 | 0.0 | 0.00 | 0.00 | 0.00 | 94 | 1008.8 |
| 20260509093039 | 73 | 0 | 0.0 | 0.0 | 0.00 | 0.00 | 0.00 | 94 | 1008.7 |
| 20260509091540 | 74 | 0 | 0.0 | 0.0 | 0.00 | 0.00 | 0.00 | 93 | 1008.8 |
| 20260509090040 | 74 | 0 | 0.0 | 0.0 | 0.00 | 0.00 | 0.00 | 93 | 1008.7 |
| 20260509084545 | 74 | 0 | 0.0 | 0.0 | 0.00 | 0.00 | 0.00 | 93 | 1008.8 |
| 20260509083041 | 74 | 0 | 0.0 | 0.0 | 0.00 | 0.00 | 0.00 | 93 | 1008.9 |
| 20260509081545 | 75 | 0 | 0.0 | 0.0 | 0.00 | 0.00 | 0.00 | 93 | 1009.0 |
| 20260509080043 | 75 | 0 | 0.0 | 0.0 | 0.00 | 0.00 | 0.00 | 92 | 1008.9 |
| 20260509074539 | 75 | 0 | 0.0 | 0.0 | 0.00 | 0.00 | 0.00 | 92 | 1008.9 |
| 20260509073042 | 75 | 0 | 0.0 | 0.0 | 0.00 | 0.00 | 0.00 | 92 | 1008.9 |
| 20260509071545 | 76 | 0 | 0.0 | 0.0 | 0.00 | 0.00 | 0.00 | 92 | 1009.0 |
| 20260509070044 | 76 | 0 | 0.0 | 0.0 | 0.00 | 0.00 | 0.00 | 91 | 1009.2 |
| 20260509064538 | 76 | 0 | 0.0 | 0.0 | 0.00 | 0.00 | 0.00 | 91 | 1009.3 |
| 20260509063041 | 76 | 0 | 0.0 | 0.0 | 0.00 | 0.00 | 0.00 | 91 | 1009.5 |
| 20260509061548 | 76 | 0 | 0.0 | 0.0 | 0.00 | 0.00 | 0.00 | 91 | 1009.6 |
| 20260509060052 | 76 | 0 | 0.0 | 0.0 | 0.00 | 0.00 | 0.00 | 91 | 1009.8 |
| 20260509054553 | 76 | 0 | 0.0 | 0.0 | 0.00 | 0.00 | 0.00 | 91 | 1009.7 |
| 20260509053041 | 76 | 0 | 0.0 | 2.0 | 0.00 | 0.00 | 0.00 | 91 | 1010.0 |
| 20260509051539 | 76 | 0 | 0.0 | 1.0 | 0.00 | 0.00 | 0.00 | 91 | 1010.1 |
| 20260509050054 | 77 | 0 | 0.0 | 1.0 | 0.00 | 0.00 | 0.00 | 90 | 1010.5 |
| 20260509044546 | 77 | 0 | 0.0 | 0.0 | 0.00 | 0.00 | 0.00 | 89 | 1010.8 |
| 20260509043041 | 77 | 0 | 0.0 | 0.0 | 0.00 | 0.00 | 0.00 | 89 | 1010.8 |
| 20260509041541 | 78 | 0 | 0.0 | 4.0 | 0.00 | 0.00 | 0.00 | 88 | 1010.9 |
| 20260509040038 | 78 | 360 | 0.0 | 2.0 | 0.00 | 0.00 | 0.00 | 88 | 1010.9 |
| 20260509034544 | 78 | 0 | 0.0 | 4.0 | 0.00 | 0.00 | 0.00 | 88 | 1011.0 |
| 20260509033041 | 78 | 0 | 1.0 | 5.0 | 0.00 | 0.00 | 0.00 | 87 | 1011.1 |
| 20260509031552 | 78 | 0 | 0.0 | 8.0 | 0.00 | 0.00 | 0.00 | 87 | 1011.0 |
| 20260509030040 | 78 | 360 | 2.0 | 6.0 | 0.00 | 0.00 | 0.00 | 87 | 1011.0 |
| 20260509024541 | 79 | 360 | 2.0 | 8.0 | 0.00 | 0.00 | 0.00 | 86 | 1011.0 |
| 20260509023052 | 79 | 360 | 2.0 | 8.0 | 0.00 | 0.00 | 0.00 | 85 | 1011.0 |
| 20260509021541 | 79 | 0 | 2.0 | 6.0 | 0.00 | 0.00 | 0.00 | 85 | 1010.6 |
| 20260509020042 | 79 | 360 | 2.0 | 8.0 | 0.00 | 0.00 | 0.00 | 85 | 1010.4 |
| 20260509014542 | 79 | 360 | 1.0 | 6.0 | 0.00 | 0.00 | 0.00 | 85 | 1010.1 |
| 20260509013103 | 79 | 360 | 1.0 | 9.0 | 0.00 | 0.00 | 0.00 | 84 | 1009.9 |
| 20260509011543 | 79 | 360 | 3.0 | 10.0 | 0.00 | 0.00 | 0.00 | 85 | 1009.7 |
| 20260509010042 | 80 | 0 | 1.0 | 9.0 | 0.00 | 0.00 | 0.00 | 84 | 1009.5 |
| 20260509004543 | 80 | 360 | 2.0 | 6.0 | 0.00 | 0.00 | 0.00 | 84 | 1009.4 |
| 20260509003043 | 80 | 360 | 1.0 | 4.0 | 0.00 | 0.00 | 0.00 | 83 | 1009.3 |
| 20260509001538 | 80 | 360 | 2.0 | 8.0 | 0.00 | 0.00 | 0.00 | 81 | 1009.1 |
| 20260509000037 | 81 | 360 | 1.0 | 6.0 | 0.00 | 0.00 | 0.00 | 81 | 1009.0 |
| 20260508234542 | 81 | 11 | 2.0 | 7.0 | 0.00 | 0.00 | 0.00 | 79 | 1009.0 |
| 20260508233044 | 82 | 38 | 2.0 | 6.0 | 0.00 | 0.00 | 0.00 | 78 | 1008.9 |
| 20260508231547 | 83 | 342 | 2.0 | 8.0 | 0.00 | 0.00 | 0.00 | 78 | 1008.8 |
| 20260508230052 | 83 | 292 | 1.0 | 6.0 | 0.00 | 0.00 | 0.00 | 74 | 1008.7 |
| 20260508224556 | 84 | 328 | 1.0 | 7.0 | 0.00 | 0.00 | 0.00 | 73 | 1008.6 |
| 20260508223037 | 85 | 0 | 0.0 | 4.0 | 0.00 | 0.00 | 0.00 | 69 | 1008.5 |
| 20260508221554 | 86 | 0 | 1.0 | 9.0 | 0.00 | 0.00 | 0.00 | 69 | 1008.4 |
| 20260508220042 | 86 | 0 | 1.0 | 7.0 | 0.00 | 0.00 | 0.00 | 71 | 1008.5 |
| 20260508214538 | 85 | 348 | 1.0 | 9.0 | 0.00 | 0.00 | 0.00 | 74 | 1008.3 |
| 20260508213042 | 86 | 266 | 2.0 | 7.0 | 0.00 | 0.00 | 0.00 | 71 | 1008.3 |
| 20260508211536 | 86 | 313 | 1.0 | 8.0 | 0.00 | 0.00 | 0.00 | 71 | 1008.6 |
| 20260508210042 | 86 | 265 | 1.0 | 7.0 | 0.00 | 0.00 | 0.00 | 71 | 1008.6 |
| 20260508204542 | 86 | 335 | 2.0 | 5.0 | 0.00 | 0.00 | 0.00 | 72 | 1008.5 |
| 20260508203039 | 85 | 270 | 3.0 | 10.0 | 0.00 | 0.00 | 0.00 | 74 | 1008.7 |
| 20260508201541 | 86 | 248 | 3.0 | 8.0 | 0.00 | 0.00 | 0.00 | 73 | 1008.9 |
| 20260508200048 | 86 | 286 | 2.0 | 8.0 | 0.00 | 0.00 | 0.00 | 74 | 1008.9 |
| 20260508194544 | 86 | 290 | 2.0 | 9.0 | 0.00 | 0.00 | 0.00 | 74 | 1009.1 |
| 20260508193115 | 86 | 237 | 4.0 | 9.0 | 0.00 | 0.00 | 0.00 | 74 | 1009.1 |
| 20260508191538 | 86 | 0 | 1.0 | 7.0 | 0.00 | 0.00 | 0.00 | 75 | 1009.5 |
| 20260508190041 | 86 | 271 | 1.0 | 8.0 | 0.00 | 0.00 | 0.00 | 76 | 1010.0 |
| 20260508184541 | 86 | 335 | 2.0 | 8.0 | 0.00 | 0.00 | 0.00 | 76 | 1010.2 |
| 20260508183044 | 86 | 275 | 2.0 | 8.0 | 0.00 | 0.00 | 0.00 | 75 | 1010.3 |
| 20260508181538 | 86 | 206 | 3.0 | 9.0 | 0.00 | 0.00 | 0.00 | 75 | 1010.6 |
| 20260508180045 | 86 | 315 | 2.0 | 9.0 | 0.00 | 0.00 | 0.00 | 76 | 1010.9 |
| 20260508174554 | 86 | 232 | 2.0 | 9.0 | 0.00 | 0.00 | 0.00 | 76 | 1011.1 |
| 20260508173041 | 86 | 0 | 3.0 | 11.0 | 0.00 | 0.00 | 0.00 | 74 | 1011.1 |
| 20260508171607 | 86 | 350 | 2.0 | 8.0 | 0.00 | 0.00 | 0.00 | 75 | 1011.2 |
| 20260508170042 | 86 | 284 | 3.0 | 10.0 | 0.00 | 0.00 | 0.00 | 75 | 1011.3 |
| 20260508164542 | 86 | 250 | 2.0 | 8.0 | 0.00 | 0.00 | 0.00 | 74 | 1011.6 |
| 20260508163040 | 86 | 265 | 1.0 | 7.0 | 0.00 | 0.00 | 0.00 | 73 | 1011.8 |
| 20260508161545 | 86 | 280 | 2.0 | 8.0 | 0.00 | 0.00 | 0.00 | 74 | 1011.9 |
| 20260508160039 | 86 | 259 | 2.0 | 6.0 | 0.00 | 0.00 | 0.00 | 76 | 1012.1 |
| 20260508154539 | 85 | 286 | 3.0 | 7.0 | 0.00 | 0.00 | 0.00 | 77 | 1012.3 |
| 20260508153041 | 85 | 20 | 1.0 | 8.0 | 0.00 | 0.00 | 0.00 | 77 | 1012.4 |
| 20260508151547 | 84 | 332 | 1.0 | 6.0 | 0.00 | 0.00 | 0.00 | 80 | 1012.5 |
| 20260508150045 | 84 | 302 | 2.0 | 8.0 | 0.00 | 0.00 | 0.00 | 81 | 1012.5 |
| 20260508144545 | 84 | 318 | 1.0 | 6.0 | 0.00 | 0.00 | 0.00 | 82 | 1012.5 |
| 20260508143039 | 83 | 275 | 1.0 | 8.0 | 0.00 | 0.00 | 0.00 | 84 | 1012.4 |
| 20260508141542 | 81 | 271 | 1.0 | 6.0 | 0.00 | 0.00 | 0.00 | 85 | 1012.5 |
| 20260508140041 | 80 | 298 | 1.0 | 8.0 | 0.00 | 0.00 | 0.00 | 87 | 1012.4 |
| 20260508134537 | 80 | 0 | 1.0 | 4.0 | 0.00 | 0.00 | 0.00 | 88 | 1012.3 |
| 20260508133100 | 79 | 268 | 1.0 | 7.0 | 0.00 | 0.00 | 0.00 | 89 | 1012.3 |
| 20260508131541 | 79 | 360 | 0.0 | 4.0 | 0.00 | 0.00 | 0.00 | 90 | 1012.3 |
| 20260508130040 | 78 | 0 | 0.0 | 4.0 | 0.00 | 0.00 | 0.00 | 90 | 1012.1 |
| 20260508124538 | 78 | 0 | 1.0 | 4.0 | 0.00 | 0.00 | 0.00 | 91 | 1012.0 |
| 20260508123040 | 77 | 0 | 0.0 | 5.0 | 0.00 | 0.00 | 0.00 | 92 | 1011.9 |
| 20260508121601 | 77 | 360 | 1.0 | 4.0 | 0.00 | 0.00 | 0.00 | 92 | 1011.8 |
| 20260508120052 | 77 | 0 | 1.0 | 4.0 | 0.00 | 0.00 | 0.00 | 92 | 1011.6 |
| 20260508114541 | 77 | 360 | 1.0 | 3.0 | 0.00 | 0.00 | 0.00 | 92 | 1011.5 |
| 20260508113104 | 76 | 0 | 1.0 | 4.0 | 0.00 | 0.00 | 0.00 | 92 | 1011.2 |
| 20260508111540 | 76 | 360 | 1.0 | 4.0 | 0.00 | 0.00 | 0.00 | 92 | 1011.0 |
| 20260508110037 | 76 | 0 | 0.0 | 2.0 | 0.00 | 0.00 | 0.00 | 92 | 1010.8 |
| 20260508104542 | 76 | 0 | 0.0 | 2.0 | 0.00 | 0.00 | 0.00 | 91 | 1010.6 |
| 20260508103038 | 76 | 0 | 0.0 | 1.0 | 0.00 | 0.00 | 0.00 | 91 | 1010.3 |
| 20260508101545 | 76 | 0 | 0.0 | 4.0 | 0.00 | 0.00 | 0.00 | 91 | 1010.1 |
| 20260508100041 | 76 | 0 | 0.0 | 3.0 | 0.00 | 0.00 | 0.00 | 91 | 1010.1 |